Regional Weather Roundup
Issued by NWS

Home | Current Version | Previous Version | Text Only | Print | Product List | Glossary On
Versions: 1 2 3 4 5 6 7 8 9 10 11 12 13 14 15 16 17 18 19 20 21 22 23 24 25 26 27 28 29 30 31 32 33 34 35 36 37 38 39 40 41 42 43 44 45 46 47 48 49 50
000
ASUS44 KMEG 041200
RWRTN
TENNESSEE HOURLY STATE WEATHER ROUNDUP
NATIONAL WEATHER SERVICE MEMPHIS TN
700 AM CDT MON MAY 04 2015

TNZ002-004-019-021-049-052-054-088>092-041300-
WEST TENNESSEE

CITY           SKY/WX    TMP DP  RH WIND       PRES   REMARKS
MEMPHIS INTL   PTCLDY    64  56  75 S7        30.17R
NWS MEMPHIS      N/A     65 N/A N/A MISG        N/A
JACKSON        MOSUNNY   64  53  67 S7        30.18R
DYERSBURG      SUNNY     63  43  48 S3        30.17R
PARIS          MOSUNNY   61  52  72 S5        30.18R
$$

TNZ008-025-027-028-033-062-065-066-041300-
NORTH MIDDLE TENNESSEE

CITY           SKY/WX    TMP DP  RH WIND       PRES   REMARKS
NASHVILLE      MOSUNNY   57  52  83 SE3       30.21R
CLARKSVILLE    SUNNY     58  52  80 S3        30.18R
CROSSVILLE     SUNNY     57  48  72 CALM      30.27R
$$

TNZ061-075-076-078-094-096-097-041300-
SOUTH MIDDLE TENNESSEE

CITY           SKY/WX    TMP DP  RH WIND       PRES   REMARKS
WINCHESTER     SUNNY     59  52  77 CALM      30.24R
SHELBYVILLE    SUNNY     55  52  88 E3        30.23R
$$

TNZ017-018-042-046-047-041300-
NORTHEAST TENNESSEE

CITY           SKY/WX    TMP DP  RH WIND       PRES   REMARKS
TRI CITIES     SUNNY     54  50  86 CALM      30.29R
ELIZABETHTON   SUNNY     54  46  76 NE3       30.30R
$$

TNZ012-013-036-069-073-074-041300-
CENTRAL EAST TENNESSEE

CITY           SKY/WX    TMP DP  RH WIND       PRES   REMARKS
KNOXVILLE      MOSUNNY   55  51  86 CALM      30.26R
OAK RIDGE      SUNNY     53  49  86 CALM      30.28R
GATLINBURG     SUNNY     52  48  87 CALM      30.26R
$$

TNZ083-085-099-041300-
SOUTHEAST TENNESSEE

CITY           SKY/WX    TMP DP  RH WIND       PRES   REMARKS
CHATTANOOGA    MOSUNNY   54  51  90 CALM      30.26R
$$

SKY/WX REPORTED AS FAIR MEANS FEW OR NO CLOUDS BELOW
12 THOUSAND FEET.




USA.gov is the U.S. government's official web portal to all federal, state and local government web resources and services.